{"data":{"norad_id":67567,"epoch":"2026-09-18T22:41:07.868544Z","epoch_age_seconds":206589,"freshness":"STALE","line1":"1 67567U 26016G   26261.94522996  .00017542  00000+0  54443-3 0  9990","line2":"2 67567  97.2863 320.6527 0000512 133.6825 226.4460 15.33446045 36489","mean_motion":15.33446045,"eccentricity":5.12e-5,"inclination_deg":97.2863,"raan_deg":320.6527,"arg_perigee_deg":133.6825,"mean_anomaly_deg":226.446,"bstar":0.00054443,"rev_number":3648,"period_min":93.906140662419,"perigee_km":465.18966902937,"apogee_km":465.89046156086,"semimajor_km":6843.6770652951,"source":"CELESTRAK","updated_at":"2026-09-20T09:00:43.574802Z"}}